LAN310 SCTE-SCEL

Flight info

Callsign LAN310
Flight time 1h 27m
Altitude 38000
Route ANROS6A ANROS UQ802 EROLO EROLO8A
Aircraft A320/M-SDE3FGHIRWY/LB1

Departure

Time 2026-05-05 21:49
Airport El Tepual International Airport (SCTE)

Arrival

Time 2026-05-05 23:17
Airport Comodoro Arturo Merino Benítez International Airport (SCEL)
Time Latitude Longitude Altitude Speed Heading
2026-05-05 21:09 -41.43330 -73.09745 301 ft 0 kts 271°
2026-05-05 21:34 -41.43330 -73.09731 302 ft 4 kts 271°
2026-05-05 21:35 -41.43331 -73.09695 300 ft 4 kts 271°
2026-05-05 21:35 -41.43332 -73.09659 301 ft 4 kts 269°
2026-05-05 21:35 -41.43330 -73.09623 301 ft 4 kts 257°
2026-05-05 21:35 -41.43321 -73.09597 302 ft 3 kts 189°
2026-05-05 21:36 -41.43318 -73.09596 301 ft 0 kts 181°
2026-05-05 21:40 -41.43323 -73.09596 302 ft 2 kts 182°
2026-05-05 21:40 -41.43353 -73.09597 303 ft 6 kts 182°
2026-05-05 21:41 -41.43411 -73.09600 303 ft 10 kts 181°
2026-05-05 21:41 -41.43496 -73.09603 303 ft 14 kts 181°
2026-05-05 21:41 -41.43602 -73.09607 301 ft 15 kts 181°
2026-05-05 21:41 -41.43701 -73.09610 301 ft 13 kts 181°
2026-05-05 21:42 -41.43785 -73.09613 302 ft 11 kts 182°
2026-05-05 21:42 -41.43859 -73.09616 302 ft 10 kts 182°
2026-05-05 21:42 -41.43922 -73.09618 300 ft 8 kts 182°
2026-05-05 21:42 -41.43975 -73.09621 302 ft 7 kts 182°
2026-05-05 21:43 -41.44022 -73.09624 301 ft 7 kts 182°
2026-05-05 21:43 -41.44071 -73.09625 300 ft 8 kts 180°
2026-05-05 21:43 -41.44129 -73.09626 300 ft 10 kts 181°
2026-05-05 21:43 -41.44205 -73.09629 301 ft 13 kts 181°
2026-05-05 21:44 -41.44302 -73.09632 300 ft 15 kts 181°
2026-05-05 21:44 -41.44417 -73.09636 300 ft 16 kts 181°
2026-05-05 21:44 -41.44528 -73.09641 300 ft 15 kts 182°
2026-05-05 21:44 -41.44631 -73.09647 300 ft 14 kts 181°
2026-05-05 21:45 -41.44728 -73.09646 301 ft 13 kts 180°
2026-05-05 21:45 -41.44817 -73.09650 301 ft 12 kts 181°
2026-05-05 21:45 -41.44892 -73.09652 302 ft 12 kts 181°
2026-05-05 21:45 -41.44969 -73.09654 302 ft 11 kts 181°
2026-05-05 21:46 -41.45040 -73.09653 305 ft 10 kts 169°
2026-05-05 21:46 -41.45068 -73.09598 304 ft 6 kts 90°
2026-05-05 21:46 -41.45068 -73.09566 306 ft 1 kts 89°
2026-05-05 21:46 -41.45068 -73.09565 306 ft 0 kts 89°
2026-05-05 21:47 -41.45068 -73.09554 308 ft 2 kts 91°
2026-05-05 21:47 -41.45068 -73.09525 311 ft 4 kts 91°
2026-05-05 21:47 -41.45069 -73.09496 311 ft 3 kts 91°
2026-05-05 21:48 -41.45069 -73.09454 312 ft 8 kts 86°
2026-05-05 21:48 -41.45049 -73.09437 310 ft 3 kts 351°
2026-05-05 21:48 -41.45035 -73.09436 311 ft 1 kts
2026-05-05 21:48 -41.45015 -73.09435 312 ft 7 kts
2026-05-05 21:49 -41.44728 -73.09425 293 ft 83 kts
2026-05-05 21:49 -41.43903 -73.09391 293 ft 149 kts
2026-05-05 21:49 -41.42775 -73.09360 744 ft 163 kts
2026-05-05 21:49 -41.41634 -73.09342 1513 ft 165 kts
2026-05-05 21:50 -41.40478 -73.09311 2068 ft 171 kts
2026-05-05 21:50 -41.39211 -73.09253 2330 ft 192 kts
2026-05-05 21:50 -41.37824 -73.09190 2664 ft 208 kts
2026-05-05 21:50 -41.36291 -73.09127 2986 ft 232 kts
2026-05-05 21:51 -41.34616 -73.09062 3571 ft 246 kts
2026-05-05 21:51 -41.32887 -73.08997 4416 ft 251 kts
2026-05-05 21:51 -41.31155 -73.08939 5272 ft 253 kts 359°
2026-05-05 21:51 -41.29381 -73.08882 6133 ft 257 kts 358°
2026-05-05 21:52 -41.25749 -73.08719 7770 ft 265 kts
2026-05-05 21:52 -41.23911 -73.08332 8597 ft 269 kts
2026-05-05 21:52 -41.22050 -73.07923 9408 ft 273 kts
2026-05-05 21:53 -41.20164 -73.07512 10153 ft 276 kts
2026-05-05 21:53 -41.18197 -73.07090 10441 ft 298 kts
2026-05-05 21:53 -41.16079 -73.06641 10717 ft 316 kts
2026-05-05 21:53 -41.13880 -73.06172 11322 ft 323 kts
2026-05-05 21:54 -41.11650 -73.05690 12006 ft 326 kts
2026-05-05 21:54 -41.09395 -73.05201 12686 ft 330 kts
2026-05-05 21:54 -41.07114 -73.04705 13380 ft 334 kts
2026-05-05 21:54 -41.04813 -73.04205 14011 ft 337 kts
2026-05-05 21:55 -41.02579 -73.03722 14614 ft 339 kts
2026-05-05 21:55 -41.00210 -73.03213 15252 ft 341 kts
2026-05-05 21:55 -40.97887 -73.02716 15870 ft 344 kts
2026-05-05 21:55 -40.95514 -73.02210 16488 ft 346 kts
2026-05-05 21:56 -40.93133 -73.01700 17106 ft 349 kts
2026-05-05 21:56 -40.90728 -73.01184 17732 ft 351 kts
2026-05-05 21:56 -40.88307 -73.00664 18315 ft 354 kts
2026-05-05 21:56 -40.85867 -73.00141 18881 ft 356 kts
2026-05-05 21:57 -40.83415 -72.99617 19458 ft 358 kts
2026-05-05 21:57 -40.80946 -72.99092 20054 ft 360 kts
2026-05-05 21:57 -40.78467 -72.98567 20625 ft 362 kts
2026-05-05 21:57 -40.75972 -72.98038 21184 ft 364 kts
2026-05-05 21:58 -40.73467 -72.97506 21735 ft 366 kts
2026-05-05 21:58 -40.70930 -72.96967 22289 ft 369 kts
2026-05-05 21:58 -40.68386 -72.96424 22830 ft 371 kts
2026-05-05 21:58 -40.65861 -72.95884 23361 ft 373 kts
2026-05-05 21:59 -40.63291 -72.95337 23823 ft 374 kts
2026-05-05 21:59 -40.60719 -72.94791 24295 ft 375 kts
2026-05-05 21:59 -40.58159 -72.94249 24766 ft 375 kts
2026-05-05 21:59 -40.57153 -72.94055 24934 ft 371 kts 356°
2026-05-05 22:00 -40.54610 -72.94317 25261 ft 368 kts 352°
2026-05-05 22:00 -40.52021 -72.94095 25748 ft 377 kts
2026-05-05 22:00 -40.49437 -72.93355 26205 ft 382 kts
2026-05-05 22:00 -40.46869 -72.92435 26635 ft 383 kts
2026-05-05 22:01 -40.44292 -72.91541 27053 ft 383 kts
2026-05-05 22:01 -40.41698 -72.90761 27468 ft 382 kts
2026-05-05 22:01 -40.39089 -72.90104 27882 ft 381 kts
2026-05-05 22:01 -40.36470 -72.89537 28285 ft 382 kts
2026-05-05 22:02 -40.33842 -72.89019 28656 ft 383 kts
2026-05-05 22:02 -40.31199 -72.88558 29052 ft 383 kts
2026-05-05 22:02 -40.28548 -72.88150 29420 ft 385 kts
2026-05-05 22:02 -40.25881 -72.87759 29771 ft 387 kts
2026-05-05 22:03 -40.23195 -72.87361 30070 ft 389 kts
2026-05-05 22:03 -40.20498 -72.86948 30351 ft 392 kts
2026-05-05 22:03 -40.18707 -72.86666 30590 ft 391 kts
2026-05-05 22:03 -40.16009 -72.86226 31013 ft 390 kts
2026-05-05 22:04 -40.13318 -72.85778 31433 ft 389 kts
2026-05-05 22:04 -40.09767 -72.85189 31977 ft 388 kts
2026-05-05 22:04 -40.07094 -72.84748 32391 ft 386 kts
2026-05-05 22:04 -40.04432 -72.84311 32825 ft 385 kts
2026-05-05 22:05 -40.02637 -72.84019 33115 ft 385 kts
2026-05-05 22:05 -40.00017 -72.83593 33546 ft 384 kts
2026-05-05 22:05 -39.97372 -72.83163 33937 ft 383 kts
2026-05-05 22:05 -39.94696 -72.82729 34249 ft 383 kts 360°
2026-05-05 22:06 -39.92095 -72.82309 34499 ft 385 kts 359°
2026-05-05 22:06 -39.89429 -72.81879 34708 ft 387 kts 359°
2026-05-05 22:06 -39.86748 -72.81449 34927 ft 389 kts 359°
2026-05-05 22:06 -39.84056 -72.81016 35156 ft 391 kts 359°
2026-05-05 22:07 -39.81356 -72.80580 35384 ft 392 kts 359°
2026-05-05 22:07 -39.78639 -72.80140 35620 ft 394 kts 359°
2026-05-05 22:07 -39.75910 -72.79699 35845 ft 396 kts 359°
2026-05-05 22:07 -39.73169 -72.79258 36058 ft 397 kts 358°
2026-05-05 22:08 -39.70423 -72.78814 36282 ft 399 kts 358°
2026-05-05 22:08 -39.67666 -72.78338 36486 ft 401 kts 359°
2026-05-05 22:08 -39.64901 -72.77835 36701 ft 402 kts 359°
2026-05-05 22:08 -39.62123 -72.77312 36914 ft 404 kts 359°
2026-05-05 22:09 -39.59342 -72.76789 37123 ft 405 kts 359°
2026-05-05 22:09 -39.56547 -72.76272 37326 ft 406 kts 358°
2026-05-05 22:09 -39.53748 -72.75762 37521 ft 407 kts 358°
2026-05-05 22:09 -39.50946 -72.75256 37732 ft 408 kts 358°
2026-05-05 22:10 -39.48120 -72.74748 37805 ft 411 kts 358°
2026-05-05 22:10 -39.42407 -72.73718 37814 ft 416 kts 358°
2026-05-05 22:11 -39.36697 -72.72677 37812 ft 417 kts 358°
2026-05-05 22:11 -39.30943 -72.71631 37813 ft 417 kts 358°
2026-05-05 22:12 -39.25420 -72.70620 37822 ft 417 kts 358°
2026-05-05 22:12 -39.19663 -72.69581 37839 ft 417 kts 358°
2026-05-05 22:13 -39.13914 -72.68551 37856 ft 417 kts 358°
2026-05-05 22:13 -39.08192 -72.67526 37875 ft 418 kts 358°
2026-05-05 22:14 -39.02436 -72.66497 37888 ft 417 kts 357°
2026-05-05 22:14 -38.96682 -72.65466 37895 ft 418 kts 358°
2026-05-05 22:15 -38.90927 -72.64421 37893 ft 418 kts 358°
2026-05-05 22:15 -38.85171 -72.63030 37899 ft 423 kts
2026-05-05 22:16 -38.79428 -72.61271 37881 ft 425 kts
2026-05-05 22:16 -38.73684 -72.59516 37871 ft 424 kts
2026-05-05 22:17 -38.67941 -72.57862 37855 ft 423 kts
2026-05-05 22:17 -38.62198 -72.56251 37843 ft 423 kts
2026-05-05 22:18 -38.56444 -72.54629 37836 ft 423 kts
2026-05-05 22:18 -38.50805 -72.53030 37841 ft 423 kts
2026-05-05 22:19 -38.45060 -72.51403 37849 ft 423 kts
2026-05-05 22:19 -38.39314 -72.49783 37853 ft 422 kts
2026-05-05 22:20 -38.33575 -72.48166 37854 ft 422 kts
2026-05-05 22:20 -38.27824 -72.46549 37860 ft 422 kts
2026-05-05 22:21 -38.22083 -72.44937 37861 ft 422 kts
2026-05-05 22:21 -38.16379 -72.43337 37871 ft 422 kts
2026-05-05 22:22 -38.10644 -72.41736 37873 ft 421 kts
2026-05-05 22:22 -38.04920 -72.40137 37880 ft 421 kts
2026-05-05 22:23 -37.99194 -72.38535 37876 ft 421 kts
2026-05-05 22:23 -37.93468 -72.36937 37883 ft 421 kts
2026-05-05 22:24 -37.87749 -72.35342 37891 ft 421 kts
2026-05-05 22:24 -37.82033 -72.33758 37891 ft 420 kts
2026-05-05 22:25 -37.76321 -72.32185 37893 ft 420 kts
2026-05-05 22:25 -37.70615 -72.30610 37903 ft 420 kts
2026-05-05 22:26 -37.64911 -72.29034 37907 ft 420 kts
2026-05-05 22:26 -37.59246 -72.27377 37922 ft 422 kts
2026-05-05 22:27 -37.53545 -72.25604 37923 ft 422 kts
2026-05-05 22:27 -37.47830 -72.23818 37929 ft 423 kts
2026-05-05 22:28 -37.42122 -72.22063 37928 ft 423 kts
2026-05-05 22:28 -37.36404 -72.20333 37924 ft 423 kts
2026-05-05 22:29 -37.30676 -72.18604 37918 ft 423 kts
2026-05-05 22:29 -37.24969 -72.16862 37915 ft 418 kts
2026-05-05 22:30 -37.19339 -72.15151 37901 ft 416 kts
2026-05-05 22:30 -37.13696 -72.13457 37910 ft 417 kts
2026-05-05 22:31 -37.08040 -72.11754 37913 ft 418 kts
2026-05-05 22:31 -37.02382 -72.10047 37920 ft 418 kts
2026-05-05 22:32 -36.96717 -72.08348 37929 ft 419 kts
2026-05-05 22:32 -36.91055 -72.06649 37937 ft 419 kts
2026-05-05 22:33 -36.85427 -72.04957 37944 ft 418 kts
2026-05-05 22:33 -36.79767 -72.03259 37950 ft 418 kts
2026-05-05 22:34 -36.74104 -72.01560 37955 ft 418 kts
2026-05-05 22:34 -36.68450 -71.99874 37956 ft 418 kts
2026-05-05 22:35 -36.62788 -71.98193 37958 ft 418 kts
2026-05-05 22:35 -36.57136 -71.96517 37956 ft 417 kts
2026-05-05 22:36 -36.51486 -71.94833 37960 ft 417 kts
2026-05-05 22:36 -36.45845 -71.93154 37962 ft 417 kts
2026-05-05 22:37 -36.40233 -71.91486 37965 ft 417 kts
2026-05-05 22:37 -36.34598 -71.89823 37965 ft 416 kts
2026-05-05 22:38 -36.28966 -71.88164 37974 ft 416 kts
2026-05-05 22:38 -36.23333 -71.86500 37980 ft 416 kts
2026-05-05 22:39 -36.17706 -71.84839 37979 ft 416 kts
2026-05-05 22:39 -36.12070 -71.83184 37979 ft 416 kts
2026-05-05 22:40 -36.06446 -71.81530 37979 ft 415 kts
2026-05-05 22:40 -36.00826 -71.79887 37986 ft 415 kts 360°
2026-05-05 22:41 -35.95204 -71.78247 37992 ft 415 kts 360°
2026-05-05 22:41 -35.89590 -71.76604 37992 ft 414 kts 360°
2026-05-05 22:42 -35.83982 -71.74963 37991 ft 414 kts 360°
2026-05-05 22:42 -35.78414 -71.73335 37988 ft 414 kts 359°
2026-05-05 22:43 -35.72814 -71.71707 37992 ft 413 kts 359°
2026-05-05 22:43 -35.67214 -71.70082 37995 ft 413 kts 359°
2026-05-05 22:44 -35.61618 -71.68462 37998 ft 413 kts 359°
2026-05-05 22:44 -35.56026 -71.66841 37998 ft 413 kts 359°
2026-05-05 22:45 -35.50437 -71.65221 38002 ft 412 kts 359°
2026-05-05 22:45 -35.44852 -71.63602 38005 ft 412 kts 359°
2026-05-05 22:46 -35.39275 -71.61990 37999 ft 412 kts 359°
2026-05-05 22:46 -35.33700 -71.60384 38005 ft 411 kts 359°
2026-05-05 22:47 -35.28135 -71.58783 38006 ft 411 kts 358°
2026-05-05 22:47 -35.22568 -71.57186 38003 ft 411 kts 358°
2026-05-05 22:47 -35.19791 -71.56387 37800 ft 411 kts
2026-05-05 22:48 -35.16996 -71.55588 37971 ft 413 kts
2026-05-05 22:48 -35.11325 -71.53983 38000 ft 425 kts
2026-05-05 22:49 -35.05487 -71.52324 37998 ft 435 kts
2026-05-05 22:49 -34.99592 -71.50629 37987 ft 438 kts
2026-05-05 22:50 -34.93653 -71.48923 37993 ft 439 kts
2026-05-05 22:50 -34.87696 -71.47209 37993 ft 440 kts
2026-05-05 22:51 -34.81737 -71.45510 37980 ft 440 kts
2026-05-05 22:51 -34.75773 -71.43817 37991 ft 440 kts
2026-05-05 22:52 -34.69805 -71.42130 38001 ft 440 kts
2026-05-05 22:52 -34.63854 -71.40207 38004 ft 451 kts 12°
2026-05-05 22:53 -34.58018 -71.37317 38005 ft 453 kts 13°
2026-05-05 22:53 -34.52173 -71.34430 38023 ft 454 kts 13°
2026-05-05 22:54 -34.46355 -71.31569 38020 ft 454 kts 13°
2026-05-05 22:54 -34.40497 -71.28694 38021 ft 454 kts 12°
2026-05-05 22:55 -34.34633 -71.25823 38018 ft 455 kts 12°
2026-05-05 22:55 -34.28762 -71.22947 38026 ft 455 kts 12°
2026-05-05 22:56 -34.22893 -71.20078 38032 ft 455 kts 12°
2026-05-05 22:56 -34.18021 -71.17699 38037 ft 454 kts 12°
2026-05-05 22:57 -34.12161 -71.14845 37786 ft 453 kts 12°
2026-05-05 22:57 -34.09221 -71.13418 36298 ft 461 kts 12°
2026-05-05 22:57 -34.06212 -71.11966 34855 ft 469 kts 13°
2026-05-05 22:57 -34.03194 -71.10501 33767 ft 467 kts 13°
2026-05-05 22:58 -34.00200 -71.09037 32846 ft 457 kts 12°
2026-05-05 22:58 -33.97268 -71.07935 32432 ft 429 kts
2026-05-05 22:58 -33.94374 -71.07494 31925 ft 411 kts 352°
2026-05-05 22:58 -33.91548 -71.07533 31456 ft 403 kts 349°
2026-05-05 22:59 -33.88749 -71.07607 30970 ft 401 kts 349°
2026-05-05 22:59 -33.85974 -71.07678 30502 ft 399 kts 349°
2026-05-05 22:59 -33.83200 -71.07746 30031 ft 397 kts 349°
2026-05-05 22:59 -33.80445 -71.07812 29525 ft 395 kts 349°
2026-05-05 23:00 -33.74994 -71.07931 28620 ft 389 kts 349°
2026-05-05 23:00 -33.72298 -71.07987 28195 ft 386 kts 349°
2026-05-05 23:00 -33.69619 -71.08044 27762 ft 384 kts 349°
2026-05-05 23:01 -33.66951 -71.08101 27342 ft 382 kts 349°
2026-05-05 23:01 -33.64291 -71.08160 26917 ft 381 kts 349°
2026-05-05 23:01 -33.61677 -71.08218 26516 ft 380 kts 350°
2026-05-05 23:01 -33.59001 -71.08277 26099 ft 379 kts 350°
2026-05-05 23:02 -33.56404 -71.08337 25690 ft 378 kts 350°
2026-05-05 23:02 -33.53776 -71.08398 25261 ft 376 kts 350°
2026-05-05 23:02 -33.51159 -71.08458 24833 ft 376 kts 350°
2026-05-05 23:02 -33.48548 -71.08520 24386 ft 376 kts 351°
2026-05-05 23:03 -33.45930 -71.08581 23939 ft 376 kts 351°
2026-05-05 23:03 -33.43317 -71.08639 23453 ft 376 kts 351°
2026-05-05 23:03 -33.40703 -71.08694 22945 ft 374 kts 351°
2026-05-05 23:03 -33.38106 -71.08746 22474 ft 373 kts 352°
2026-05-05 23:04 -33.35519 -71.08798 21993 ft 370 kts 352°
2026-05-05 23:04 -33.32946 -71.08851 21515 ft 368 kts 352°
2026-05-05 23:04 -33.30388 -71.08907 21029 ft 367 kts 352°
2026-05-05 23:04 -33.27839 -71.08967 20555 ft 366 kts 352°
2026-05-05 23:05 -33.25577 -71.09020 20146 ft 365 kts 353°
2026-05-05 23:05 -33.23072 -71.09077 19655 ft 364 kts 353°
2026-05-05 23:05 -33.20574 -71.09102 19214 ft 364 kts 357°
2026-05-05 23:05 -33.18049 -71.08692 18712 ft 367 kts
2026-05-05 23:06 -33.15549 -71.08159 18358 ft 362 kts
2026-05-05 23:06 -33.13068 -71.07614 17861 ft 361 kts
2026-05-05 23:06 -33.10604 -71.07071 17128 ft 363 kts
2026-05-05 23:06 -33.08083 -71.06526 16467 ft 372 kts
2026-05-05 23:07 -33.05524 -71.05977 15940 ft 373 kts
2026-05-05 23:07 -33.02981 -71.05428 15405 ft 370 kts
2026-05-05 23:07 -33.00454 -71.04881 14870 ft 368 kts
2026-05-05 23:07 -32.97947 -71.04339 14343 ft 365 kts
2026-05-05 23:08 -32.95476 -71.03805 13819 ft 363 kts
2026-05-05 23:08 -32.93000 -71.03271 13588 ft 356 kts
2026-05-05 23:08 -32.90569 -71.02644 13485 ft 361 kts 16°
2026-05-05 23:08 -32.88422 -71.01045 13326 ft 372 kts 41°
2026-05-05 23:09 -32.86981 -70.98513 12790 ft 383 kts 65°
2026-05-05 23:09 -32.86561 -70.95364 12341 ft 383 kts 92°
2026-05-05 23:09 -32.87293 -70.92378 12160 ft 372 kts 116°
2026-05-05 23:09 -32.88543 -70.89790 12042 ft 359 kts 120°
2026-05-05 23:10 -32.89821 -70.87295 11908 ft 348 kts 125°
2026-05-05 23:10 -32.91477 -70.85268 11777 ft 337 kts 145°
2026-05-05 23:10 -32.93505 -70.84004 11640 ft 325 kts 163°
2026-05-05 23:10 -32.95690 -70.83493 11358 ft 318 kts 175°
2026-05-05 23:11 -32.97879 -70.83168 11037 ft 316 kts 175°
2026-05-05 23:11 -33.00054 -70.82850 10377 ft 317 kts 175°
2026-05-05 23:11 -33.02262 -70.82529 9559 ft 322 kts 174°
2026-05-05 23:11 -33.04493 -70.82204 8694 ft 324 kts 174°
2026-05-05 23:12 -33.06741 -70.81955 7853 ft 325 kts 176°
2026-05-05 23:12 -33.08999 -70.81816 7033 ft 325 kts 179°
2026-05-05 23:12 -33.11232 -70.81754 6526 ft 314 kts 178°
2026-05-05 23:12 -33.13369 -70.81654 6120 ft 301 kts 177°
2026-05-05 23:13 -33.15429 -70.81537 5736 ft 295 kts 177°
2026-05-05 23:13 -33.17488 -70.81425 5344 ft 296 kts 177°
2026-05-05 23:13 -33.19544 -70.81316 4964 ft 296 kts 177°
2026-05-05 23:13 -33.21597 -70.81206 4573 ft 296 kts 177°
2026-05-05 23:14 -33.23635 -70.81098 4180 ft 288 kts 177°
2026-05-05 23:14 -33.25588 -70.80993 3813 ft 273 kts 177°
2026-05-05 23:14 -33.27366 -70.80898 3478 ft 247 kts 177°
2026-05-05 23:14 -33.29025 -70.80809 3179 ft 231 kts 177°
2026-05-05 23:15 -33.30586 -70.80726 2870 ft 218 kts 177°
2026-05-05 23:15 -33.32049 -70.80648 2587 ft 204 kts 177°
2026-05-05 23:15 -33.33429 -70.80574 2359 ft 193 kts 177°
2026-05-05 23:15 -33.34738 -70.80504 2083 ft 184 kts 176°
2026-05-05 23:16 -33.35974 -70.80438 1842 ft 170 kts 171°
2026-05-05 23:16 -33.37071 -70.80381 1672 ft 149 kts 176°
2026-05-05 23:16 -33.38047 -70.80320 1573 ft 125 kts 176°
2026-05-05 23:16 -33.38754 -70.80289 1575 ft 77 kts 177°
2026-05-05 23:17 -33.39115 -70.80271 1573 ft 29 kts 178°
2026-05-05 23:17 -33.39310 -70.80217 1572 ft 29 kts 160°
2026-05-05 23:17 -33.39425 -70.80132 1568 ft 15 kts 140°
2026-05-05 23:17 -33.39507 -70.80048 1566 ft 12 kts 129°
2026-05-05 23:18 -33.39530 -70.79943 1565 ft 15 kts 88°
2026-05-05 23:18 -33.39524 -70.79838 1565 ft 12 kts 89°
2026-05-05 23:18 -33.39522 -70.79729 1565 ft 14 kts 89°
2026-05-05 23:18 -33.39519 -70.79632 1564 ft 12 kts 86°
2026-05-05 23:19 -33.39514 -70.79524 1564 ft 9 kts 86°
2026-05-05 23:19 -33.39512 -70.79451 1564 ft 8 kts 88°
2026-05-05 23:19 -33.39508 -70.79376 1564 ft 10 kts 86°
2026-05-05 23:19 -33.39506 -70.79308 1564 ft 4 kts 88°
2026-05-05 23:20 -33.39527 -70.79294 1564 ft 4 kts 183°
2026-05-05 23:20 -33.39560 -70.79295 1564 ft 5 kts 179°
2026-05-05 23:20 -33.39576 -70.79294 1564 ft 2 kts 177°
2026-05-05 23:20 -33.39593 -70.79293 1564 ft 0 kts 176°
2026-05-05 23:21 -33.39596 -70.79293 1564 ft 0 kts 176°